Home > Weather > Provincetown > Past weeks

Flag for USA Past Weather in Provincetown, Massachusetts, USA — Yesterday and Last 2 Weeks

Now
80 °F

Sunny.


Feels Like: 82 °F
Forecast: 66 / 80 °F
Wind: 10 mph from Southwest

Location: Provincetown Weather Reporting Station

Current Time: Aug 24, 2016 at 5:49:29 PM

Latest Report: Aug 24, 2016 at 4:56 PM


Visibility: 10 mi

Pressure: 30.17 "Hg

Humidity: 56%

Dew Point: 63 °F

Location of ProvincetownLocation

Past Weather in Provincetown — Graph

°F

Provincetown Temperature Yesterday

Maximum temperature yesterday: 77 °F (at 2:56 PM)
Minimum temperature yesterday: 62 °F (at 5:56 AM)
Average temperature yesterday: 69 °F

High & Low Weather Summary for the Past Weeks

 TemperatureHumidityPressure
High90 °F (Aug 14, 1:56 PM)100% (Aug 10, 12:02 PM)30.29 "Hg (Aug 10, 12:02 PM)
Low62 °F (Aug 18, 2:56 AM)33% (Aug 23, 1:56 PM)29.74 "Hg (Aug 22, 4:56 AM)
Average74 °F80%30.01 "Hg
* Reported Aug 9 4:56 PM — Aug 24 4:56 PM, Provincetown, Weather by CustomWeather, © 2016

Note: Actual official high and low records may vary slightly from our data, if they occured in-between our weather recording intervals... More about our weather records

Advertising

Provincetown Weather History for the Previous 24 Hours

Scroll right to see more
 ConditionsComfort  
Time TempWeatherWind HumidityBarometerVisibility
4:56 PM
Wed, Aug 24
80 °FSunny.10 mph56%30.17 "Hg10 mi
3:56 PM82 °FSunny.9 mph51%30.18 "Hg10 mi
2:56 PM84 °FSunny.9 mph46%30.19 "Hg10 mi
1:56 PM84 °FSunny.7 mph48%30.21 "Hg10 mi
12:56 PM81 °FSunny.8 mph49%30.22 "Hg10 mi
11:56 AM79 °FSunny.6 mph52%30.23 "Hg10 mi
10:56 AM77 °FSunny.6 mph62%30.25 "Hg10 mi
9:56 AM73 °FSunny.7 mph71%30.27 "Hg10 mi
8:56 AM71 °FSunny.8 mph78%30.26 "Hg10 mi
7:56 AM69 °FSunny.10 mph81%30.25 "Hg10 mi
6:56 AM65 °FClear.6 mph91%30.25 "Hg10 mi
5:56 AM62 °FClear.6 mph93%30.24 "Hg10 mi
4:56 AM63 °FClear.6 mph93%30.24 "Hg10 mi
3:56 AM64 °FClear.7 mph90%30.23 "Hg10 mi
2:56 AM64 °FClear.8 mph87%30.24 "Hg10 mi
1:56 AM65 °FClear.9 mph85%30.25 "Hg10 mi
12:56 AM65 °FClear.9 mph85%30.26 "Hg10 mi
11:56 PM
Tue, Aug 23
65 °FClear.9 mph85%30.25 "Hg10 mi
10:56 PM66 °FClear.10 mph78%30.25 "Hg10 mi
9:56 PM66 °FClear.9 mph81%30.24 "Hg10 mi
8:56 PM67 °FClear.10 mph76%30.23 "Hg10 mi
7:56 PM68 °FSunny.13 mph73%30.22 "Hg10 mi
6:56 PM70 °FSunny.10 mph66%30.22 "Hg10 mi
5:56 PM74 °FSunny.10 mph57%30.22 "Hg10 mi
Weather by CustomWeather, © 2016

See weather overviewHow to use our weather pages